This demonstration page uses our WeatherBlox Daily Observations layout. Learn more.

Left ArrowRight Arrow

39.12711, -84.51439

Hourly Observations for August 8, 2016

Temp ( °F °C ) Dew Point ( °F °C ) Humidity (%) Winds ( mph kmh ) Pressure ( in mb ) Visibility ( mi km ) Precip ( " mm )
12:53 am 00:53 Clear 66 18.9 65 18.3 96 96 N N/A 29.98 1015 10 16 N/A
1:53 am 01:53 Clear 65 18.3 65 18.3 100 100 NE 5 7 29.98 1015 10 16 N/A
2:53 am 02:53 Clear 66 18.9 65 18.3 96 96 N 3 6 29.98 1015 10 16 N/A
3:53 am 03:53 Clear 65 18.3 64 17.8 97 97 NNE 3 6 29.97 1015 10 16 N/A
4:53 am 04:53 Clear with Mist and Fog 63 17.2 63 17.2 100 100 N N/A 29.98 1015 6 10 N/A
5:49 am 05:49 Mostly Cloudy with Mist and Fog 63 17 63 17 100 100 N N/A 29.97 1015 1 1 N/A
5:53 am 05:53 Mostly Cloudy with Mist and Fog 62 16.7 62 16.7 100 100 N N/A 29.99 1016 1 1 N/A
5:59 am 05:59 Clear with Mist and Fog 62 16.7 62 16.7 100 100 N N/A 29.97 1015 3 4 N/A
6:06 am 06:06 Clear 63 17 63 17 100 100 N N/A 29.97 1015 9 14 N/A
6:53 am 06:53 Sunny 61 16.1 61 16.1 100 100 N N/A 30.01 1016 9 14 N/A
7:53 am 07:53 Sunny 65 18.3 65 18.3 100 100 N N/A 30.02 1017 10 16 N/A
8:53 am 08:53 Sunny 69 20.6 63 17.2 81 81 NNE 6 9 30.03 1017 10 16 N/A
9:53 am 09:53 Sunny 72 22.2 63 17.2 73 73 NE 7 11 30.03 1017 10 16 N/A
10:53 am 10:53 Sunny 75 23.9 64 17.8 69 69 NNE 7 11 30.03 1017 10 16 N/A
11:53 am 11:53 Sunny 80 26.7 65 18.3 60 60 ENE 9 15 30.02 1017 10 16 N/A
12:53 pm 12:53 Sunny 83 28.3 67 19.4 59 59 E 8 13 30.00 1016 10 16 N/A
1:53 pm 13:53 Sunny 85 29.4 64 17.8 50 50 ENE 10 17 29.99 1016 10 16 N/A
2:53 pm 14:53 Sunny 86 30 65 18.3 49 49 ENE 13 20 29.98 1015 10 16 N/A
3:53 pm 15:53 Mostly Sunny 84 28.9 66 18.9 55 55 ENE 7 11 29.97 1015 10 16 N/A
4:53 pm 16:53 Sunny 83 28.3 65 18.3 55 55 E 7 11 29.95 1014 10 16 N/A
5:53 pm 17:53 Sunny 83 28.3 69 20.6 63 63 VRB 3 6 29.95 1014 10 16 N/A
6:53 pm 18:53 Sunny 82 27.8 70 21.1 67 67 N N/A 29.94 1014 10 16 N/A
7:53 pm 19:53 Sunny 80 26.7 73 22.8 79 79 N N/A 29.94 1014 10 16 N/A
8:53 pm 20:53 Clear 75 23.9 71 21.7 88 88 N N/A 29.94 1014 10 16 N/A
9:53 pm 21:53 Clear 72 22.2 70 21.1 94 94 N N/A 29.96 1015 10 16 N/A
10:53 pm 22:53 Clear 71 21.7 70 21.1 96 96 N N/A 29.97 1015 10 16 N/A
11:53 pm 23:53 Clear 70 21.1 69 20.6 97 97 ENE 3 6 29.98 1015 10 16 N/A

Powered by AerisWeather